Location: Stanford
(52.2833°N, 2.4333°W)
Time: 02:16:16
(UTC+00:00)

CZ-4 R/B - Pass Details

Date: 22 January 2021
Orbit: 580 x 589 km, 97.7° (Epoch: 28 February)

Event Time Altitude Azimuth Distance (km) Brightness Sun altitude
Rises 18:18:48 0° 165° (SSE) 2,800 7.9 -14.9°
Reaches altitude 10° 18:20:56 10° 166° (SSE) 1,906 7.0 -15.2°
Maximum altitude 18:25:04 87° 252° (WSW) 596 4.4 -15.8°
Drops below altitude 10° 18:29:16 10° 345° (NNW) 1,926 7.1 -16.5°
Sets 18:31:27 0° 346° (NNW) 2,833 8.0 -16.8°
